Location: Poprad
(49.0500°N, 20.3000°E)
Time: 14:00:55
(UTC+02:00)

ISS - Pass Details

Date: 26 March 2019
Orbit: 408 x 410 km, 51.6° (Epoch: 24 April)

Event Time Altitude Azimuth Distance (km) Brightness Sun altitude
Rises 21:00:31 0° 280° (W) 2,336 0.9 -27.6°
Reaches altitude 10° 21:02:39 10° 286° (WNW) 1,474 -0.2 -27.9°
Enters shadow 21:03:36 18° 291° (WNW) 1,101 -1.0 -28.0°
